Flag for Poland Weather past 2 weeks in Kraków, Poland

Now
63 °F

Scattered clouds.


Feels Like: 63 °F
Forecast: 47 / 59 °F
Wind: 17 mph from West

Location: Krakow Airport

Current Time: Oct 20, 2014 at 3:08:32 PM

Latest Report: Oct 20, 2014 at 2:30 PM


Visibility: N/A

Pressure: 29.92 "Hg

Humidity: 77%

Dew point: 55 °F

Location of KrakówLocation

Historic Weather in Kraków — Graph

°F

Kraków temperature yesterday

Maximum temperature yesterday: 68 °F (at 1:30 PM)
Minimum temperature yesterday: 43 °F (at 6:00 AM)
Average temperature yesterday: 53 °F

Past Weeks' High & Low Weather Summary

 TemperatureHumidityPressure
High79 °F (Oct 9, 4:00 PM)100% (Oct 6, 12:30 AM)30.33 "Hg (Oct 6, 12:30 AM)
Low32 °F (Oct 6, 5:00 AM)45% (Oct 9, 4:00 PM)29.71 "Hg (Oct 14, 5:30 AM)
Average55 °F89%29.99 "Hg
* Reported Oct 5 2:00 PM — Oct 20 2:00 PM, Kraków, Weather by CustomWeather, © 2014

Note: Actual official high and low records may vary slightly from our data, if they occured in-between our weather recording intervals... More about our weather records

Advertising

Kraków weather history for previous 24 hours

 ConditionsComfort  
Time TempWeatherWind HumidityBarometerVisibility
2:00 PM
Oct 20
64 °FScattered clouds.16 mph73%29.92 "HgN/A
1:30 PM63 °FScattered clouds.16 mph77%29.95 "HgN/A
1:00 PM61 °FScattered clouds.15 mph83%29.95 "HgN/A
12:30 PM61 °FPartly sunny.13 mph83%29.98 "HgN/A
12:00 PM61 °FScattered clouds.10 mph83%29.98 "HgN/A
11:30 AM59 °FPartly sunny.12 mph88%29.98 "HgN/A
11:00 AM57 °FPartly sunny.12 mph94%29.98 "HgN/A
10:30 AM57 °FBroken clouds.10 mph94%29.98 "HgN/A
10:00 AM57 °FLight rain. Partly sunny.12 mph94%29.98 "HgN/A
9:30 AM59 °FPartly sunny.14 mph82%29.98 "HgN/A
9:00 AM61 °FPartly sunny.12 mph77%29.98 "HgN/A
8:30 AM55 °FPartly sunny.3 mph94%29.95 "HgN/A
8:00 AM55 °FPassing clouds.2 mph94%29.95 "HgN/A
7:30 AM54 °FPassing clouds.1 mph94%29.95 "HgN/A
7:00 AM52 °FPassing clouds.No wind100%29.95 "HgN/A
5:00 AM48 °FClear.No wind100%29.98 "Hg10 mi
4:30 AM48 °FClear.No wind94%29.98 "Hg10 mi
4:00 AM48 °FClear.2 mph94%29.98 "Hg10 mi
3:30 AM46 °FClear.1 mph93%29.98 "Hg10 mi
3:00 AM48 °FClear.2 mph94%29.98 "Hg10 mi
2:30 AM46 °FClear.No wind93%30.01 "Hg10 mi
2:00 AM46 °FClear.2 mph100%30.01 "Hg10 mi
1:30 AM46 °FClear.1 mph100%30.01 "Hg10 mi
1:00 AM48 °FClear.No wind94%30.01 "Hg10 mi
12:30 AM46 °FClear.1 mph100%30.01 "Hg10 mi
12:00 AM48 °FClear.2 mph94%30.01 "Hg10 mi
11:30 PM
Oct 19
50 °FClear.2 mph94%30.04 "Hg10 mi
11:00 PM48 °FClear.1 mph94%30.04 "Hg10 mi
10:30 PM55 °FClear.6 mph82%30.04 "Hg10 mi
10:00 PM52 °FClear.3 mph88%30.04 "Hg10 mi
9:30 PM55 °FClear.6 mph82%30.04 "Hg10 mi
9:00 PM55 °FClear.6 mph82%30.07 "Hg10 mi
8:30 PM57 °FClear.7 mph77%30.07 "Hg10 mi
8:00 PM57 °FClear.5 mph77%30.09 "Hg10 mi
7:30 PM59 °FClear.7 mph72%30.09 "Hg10 mi
7:00 PM59 °FClear.6 mph72%30.09 "Hg10 mi
6:30 PM59 °FSunny.8 mph72%30.09 "Hg10 mi
6:00 PM61 °FSunny.9 mph72%30.09 "Hg10 mi
5:30 PM63 °FSunny.6 mph68%30.09 "Hg10 mi
5:00 PM64 °FSunny.10 mph60%30.09 "Hg10 mi
4:30 PM66 °FSunny.12 mph56%30.09 "Hg10 mi
4:00 PM66 °FSunny.14 mph60%30.09 "Hg10 mi
3:30 PM68 °FSunny.12 mph56%30.12 "Hg10 mi
3:00 PM68 °FSunny.13 mph56%30.12 "Hg10 mi
Weather by CustomWeather, © 2014

See weather overviewHow to use our weather pages